Tracking 30106 objects as of 23-Jan-2025
HD Live streaming from Space Station
objects crossing your sky now

THORAD DELTA 1 DEB

Track THORAD DELTA 1 DEB now!
10-day predictions


NORAD ID: 8172
Int'l Code: 1974-089AN
Perigee: 1,409.6 km
Apogee: 1,492.7 km
Inclination: 102.0 °
Period: 114.7 minutes
Semi major axis: 7822 km
RCS: 0.2202 m2 (medium)
Launch date: November 15, 1974
Source: United States (US)
Launch site: AIR FORCE WESTERN TEST RANGE (AFWTR)

Note: This is SATELLITE DEBRIS
Your satellite tracking list
Your tracking list is empty




NASA's NSSDC Master Catalog

Two Line Element Set (TLE):
1 08172U 74089AN  25022.47724644 -.00000016  00000-0  18720-3 0  9994
2 08172 101.9923  29.3205 0053068 348.4872 139.0794 12.54914300298757
Source of the keplerian elements: AFSPC